Location: Lombard
(41.8800°N, 88.0080°W)
Time: 22:43:03
(UTC-05:00)

Transit 2A - Pass Details

Date: 13 February 2023
Orbit: 591 x 964 km, 66.7° (Epoch: 20 March)

Event Time Altitude Azimuth Distance (km) Brightness Sun altitude
Rises 16:28:50 0° 271° (W) 3,128 10.4 8.4°
Reaches altitude 10° 16:32:29 10° 299° (WNW) 2,300 9.1 7.8°
Maximum altitude 16:34:56 13° 327° (NNW) 2,148 8.5 7.4°
Drops below altitude 10° 16:37:29 10° 354° (N) 2,424 8.4 7.0°
Sets 16:41:34 0° 21° (NNE) 3,454 9.0 6.3°
